Wind_Speed
22 21 19 17 15 15 16 14 15 15 15 15 15 14 14 15 16 15 13 14 14 13 12 13 14 13 11 11 8 7 8 6 6 6 6 10 11 11 15 16 16 15 17
26 26 24 23 21 18 18 16 17 16 17 18 18 16 16 17 16 14 14 14 15 15 15 15 14 13 11 9 10 11 11 10 10 9 10 12 12 13 16 17 19 19 20
26 28 28 26 23 23 24 21 19 18 19 20 18 17 17 17 17 18 19 18 18 17 15 14 13 14 14 12 13 14 14 14 17 17 14 14 15 16 17 20 21 22 24
28 28 29 28 28 27 27 25 23 22 22 20 21 20 19 18 19 19 19 17 18 17 17 16 16 16 18 18 19 18 18 17 19 20 19 18 18 20 22 24 25 25 26
32 31 30 28 27 29 29 28 27 26 25 24 23 23 23 22 21 20 20 20 20 20 21 20 19 19 20 21 22 21 21 22 22 23 23 23 23 25 26 24 25 25 26
50 34 31 30 29 28 30 30 29 29 29 27 25 25 24 24 23 23 22 22 21 22 23 22 21 22 22 23 23 24 25 26 27 27 25 24 28 29 28 28 28 30 30
36 34 30 30 31 32 32 34 33 32 32 29 28 28 28 27 25 24 24 24 24 24 25 25 25 25 24 26 28 28 28 29 30 31 31 30 30 29 31 33 31 30 32
31 36 33 34 30 37 38 37 38 36 34 34 32 30 29 29 27 27 27 28 28 28 27 28 30 32 32 31 31 32 33 33 33 34 35 38 36 37 37 36 35 34 35
28 24 33 48 46 35 46 44 43 39 36 36 34 31 30 31 32 32 32 32 32 32 31 30 32 34 34 35 36 36 36 36 38 41 41 39 38 38 39 40 36 38 41
16 20 24 29 57 51 47 48 44 41 37 39 39 35 33 33 33 35 36 35 35 35 35 35 37 40 39 39 38 39 38 39 41 40 42 44 46 44 46 46 45 48 50
20 17 16 21 39 39 31 33 33 43 42 41 38 37 36 36 36 37 39 38 39 39 40 41 41 39 43 45 45 42 44 45 46 47 50 51 52 53 50 50 52 53 54
18 19 21 16 19 27 28 38 32 37 40 43 41 39 39 38 39 39 46 49 48 50 48 46 45 44 45 46 49 50 52 52 55 55 54 54 49 50 51 53 53 55 54
18 15 18 19 13 15 27 39 51 47 40 40 43 48 47 46 43 48 50 47 43 47 51 50 50 52 52 47 52 50 51 51 54 54 50 49 51 51 50 49 48 50 53
23 22 20 21 17 14 29 26 26 35 38 48 49 48 52 49 46 47 43 44 47 46 48 50 50 49 46 50 45 45 45 48 51 39 48 53 50 50 51 50 46 43 40
26 27 26 25 23 17 18 24 32 28 35 40 41 49 58 57 54 50 51 51 48 44 37 34 36 36 37 37 34 36 35 41 45 42 45 46 44 43 43 40 41 41 39
31 31 31 31 29 25 21 20 24 29 29 17 11 27 27 27 25 23 24 23 23 26 28 33 34 36 38 41 39 40 40 41 42 43 43 42 42 41 40 40 41 44 46
31 33 34 33 33 29 27 25 25 25 23 20 19 18 15 21 20 21 25 27 29 31 32 33 34 31 32 34 36 38 39 40 42 39 37 38 39 43 46 47 52 53 51
23 26 29 32 33 32 30 28 26 25 26 23 23 24 26 28 30 31 33 35 36 36 36 35 36 35 34 36 41 43 44 47 48 49 47 48 49 50 53 55 54 55 52
15 19 22 23 23 26 29 29 27 26 28 30 31 31 31 33 35 34 35 39 42 42 44 43 42 42 42 42 45 46 48 48 46 46 46 47 47 49 50 49 48 47 47
21 21 20 20 20 21 25 27 28 27 28 29 30 32 35 36 35 35 36 38 39 41 41 41 41 41 41 41 42 43 44 45 44 45 46 46 44 43 44 43 44 43 42
19 18 19 20 21 22 24 26 28 27 27 28 28 30 32 33 34 35 35 35 36 37 38 39 40 41 42 43 44 44 44 44 43 43 43 41 38 38 38 39 40 40 41
8 11 13 16 17 19 21 21 22 25 25 26 26 26 27 27 28 29 30 30 30 30 30 30 30 31 31 32 33 34 36 37 39 40 40 41 41 41 42 43 42 43 44
7 8 9 10 11 13 14 14 14 16 17 17 17 17 18 19 19 20 20 21 22 24 26 27 29 31 32 33 35 37 39 40 42 43 44 45 45 46 46 45 44 45 45
14 15 17 19 20 21 21 22 22 23 24 24 23 25 25 24 25 26 28 30 31 32 33 34 35 36 38 40 42 43 45 45 46 46 46 46 45 45 44 44 44 43 42
17 17 16 16 19 22 25 26 27 29 29 28 28 28 28 29 30 31 32 32 33 35 36 38 40 42 43 44 44 45 46 46 46 46 44 42 41 40 40 42 42 41 42
21 21 22 23 24 25 25 26 27 27 27 28 28 28 28 28 31 32 33 35 35 36 37 38 41 42 42 43 44 45 45 44 43 39 41 41 40 40 40 41 43 44 44
Wind_Direction
205 202 196 204 221 221 214 208 214 210 212 208 210 218 225 227 231 239 240 246 252 264 271 274 282 286 282 283 287 277 273 284 291 294 280 279 282 290 293 301 306 299 305
212 209 210 204 210 225 230 226 229 220 226 223 220 224 227 232 233 234 244 249 257 261 263 270 277 280 280 270 268 274 280 290 290 281 280 275 283 280 284 288 293 296 302
227 224 213 215 215 222 229 227 231 236 233 237 236 234 235 242 246 244 247 252 257 261 263 265 272 276 281 280 269 274 280 286 287 283 280 276 278 282 285 288 291 292 297
231 231 230 222 219 221 231 230 229 233 237 235 234 236 241 245 247 249 254 257 262 265 266 264 266 268 272 273 274 277 277 277 275 276 276 278 278 283 284 291 292 298 297
240 235 232 230 231 234 232 234 232 229 229 230 234 235 236 239 243 249 254 256 257 262 265 267 268 269 272 275 278 278 277 275 273 272 277 279 279 277 278 282 282 284 289
250 235 235 236 233 234 243 240 240 236 232 231 236 239 242 244 245 248 252 254 257 257 261 264 265 267 269 273 276 281 280 278 277 278 282 282 279 274 279 282 282 286 285
225 217 232 239 244 243 239 243 239 244 245 239 237 240 244 247 249 251 254 257 259 261 263 263 264 266 269 273 272 272 273 276 278 280 280 281 282 283 280 279 282 282 280
225 216 218 236 242 242 239 240 240 239 243 245 243 243 248 250 253 254 256 259 262 265 266 270 270 270 271 272 273 273 276 279 278 278 279 281 279 278 276 275 272 274 275
255 257 241 243 238 239 242 237 242 238 238 244 245 245 248 251 253 255 257 261 264 269 271 273 268 269 273 273 273 274 272 275 279 277 275 276 279 283 284 279 274 276 279
324 269 263 258 235 250 248 227 230 235 238 242 247 247 248 251 256 261 262 264 267 267 267 267 271 279 272 273 276 276 275 274 281 281 279 284 276 280 282 279 278 278 279
303 315 305 271 233 231 227 225 241 241 239 240 241 245 249 252 254 260 266 267 267 267 267 267 271 272 276 279 283 274 271 273 277 281 279 286 281 276 280 282 282 281 282
287 293 296 300 264 251 257 233 250 244 237 237 243 246 247 245 254 259 268 264 267 267 269 273 273 274 278 277 276 275 277 275 276 281 283 279 281 278 274 282 284 281 282
275 275 281 293 309 240 219 226 246 239 238 238 242 247 251 250 260 263 275 273 273 272 268 272 274 271 271 277 279 275 277 274 274 281 283 283 282 278 280 281 282 280 280
266 268 267 271 275 289 271 278 244 236 237 248 242 245 250 250 260 264 263 269 273 270 269 273 274 278 275 273 272 276 269 268 280 273 271 285 288 288 288 290 289 285 281
257 260 263 261 263 264 276 279 281 301 241 239 230 234 249 252 256 259 261 265 270 268 270 269 270 266 267 266 270 272 272 269 270 277 278 283 283 284 286 287 281 273 277
248 249 253 257 258 258 255 263 275 279 285 246 301 249 232 233 232 241 248 259 266 264 268 269 270 268 265 270 271 274 273 271 274 270 273 274 278 280 283 283 284 281 280
257 248 248 252 255 258 259 255 252 261 267 272 268 261 277 258 266 265 263 266 269 266 266 268 270 272 272 272 269 268 268 267 265 269 286 286 282 288 289 290 292 292 296
257 256 253 251 254 257 256 254 251 255 255 251 249 253 252 253 259 260 259 266 269 269 267 269 273 275 273 266 266 265 272 281 286 285 285 286 282 286 288 290 287 290 293
258 260 259 253 250 253 254 254 251 249 251 254 258 263 265 263 263 266 268 267 268 270 274 279 281 280 278 275 275 278 281 283 284 285 285 285 284 285 286 287 288 290 290
262 261 261 264 263 259 258 258 257 255 254 254 256 260 264 265 266 266 267 268 269 271 272 274 275 276 277 278 279 280 281 282 284 285 286 288 289 288 286 286 285 284 285
275 277 280 278 273 269 269 268 267 265 262 261 261 263 264 265 269 271 271 270 270 270 269 269 271 272 274 278 280 283 285 287 288 289 290 291 290 289 290 290 289 288 287
269 271 273 277 279 276 274 275 273 270 268 267 264 262 263 265 265 265 266 268 271 273 274 274 275 275 277 280 284 286 287 289 291 292 293 293 293 293 291 291 291 291 291
301 287 283 280 279 279 277 276 277 280 282 283 284 286 286 286 284 281 278 277 277 279 281 284 288 290 291 292 291 291 291 291 291 292 292 292 291 291 291 290 290 290 290
295 291 286 283 281 276 274 277 280 279 280 283 284 280 276 277 278 282 285 286 287 287 288 289 290 292 293 291 290 289 288 289 290 290 290 290 289 288 288 289 288 287 287
291 286 284 283 276 275 276 275 274 276 275 274 274 274 275 278 282 285 283 282 281 281 284 285 285 284 284 284 286 287 287 287 288 288 289 288 287 288 289 290 289 288 289
292 291 291 290 288 283 280 277 275 273 274 277 277 276 276 273 273 274 277 277 282 285 285 285 286 287 289 289 288 288 287 287 288 286 287 289 290 288 287 287 288 291 292
Height
5897 5900 5903 5909 5914 5916 5918 5920 5922 5925 5926 5929 5930 5931 5933 5936 5937 5938 5939 5940 5941 5940 5941 5941 5940 5940 5941 5939 5938 5940 5941 5940 5938 5939 5939 5938 5937 5935 5935 5933 5932 5931 5929
5892 5896 5898 5901 5908 5912 5915 5918 5919 5921 5923 5925 5927 5928 5930 5933 5934 5935 5936 5937 5938 5938 5938 5936 5935 5936 5936 5936 5937 5939 5939 5937 5936 5937 5937 5936 5935 5934 5932 5931 5928 5927 5925
5891 5893 5894 5896 5899 5905 5909 5913 5916 5917 5919 5921 5922 5924 5927 5929 5929 5931 5933 5933 5934 5934 5934 5933 5933 5932 5932 5933 5935 5937 5936 5934 5933 5933 5933 5933 5931 5930 5928 5926 5924 5922 5921
5886 5889 5892 5893 5895 5897 5900 5905 5909 5912 5915 5917 5919 5920 5922 5924 5925 5926 5928 5929 5929 5930 5930 5930 5929 5929 5930 5931 5931 5931 5931 5931 5931 5929 5929 5928 5927 5925 5923 5921 5918 5917 5914
5882 5885 5886 5889 5892 5896 5897 5900 5902 5906 5907 5910 5911 5914 5916 5918 5919 5921 5922 5923 5925 5925 5926 5926 5926 5926 5926 5926 5926 5925 5925 5925 5925 5924 5923 5923 5921 5919 5918 5916 5913 5912 5910
5876 5878 5880 5882 5885 5890 5894 5896 5899 5901 5901 5902 5905 5906 5909 5911 5913 5915 5917 5918 5919 5920 5921 5921 5922 5922 5921 5920 5919 5919 5919 5919 5918 5918 5917 5916 5913 5911 5911 5910 5908 5906 5905
5857 5868 5874 5878 5880 5882 5885 5890 5892 5895 5897 5898 5898 5901 5903 5905 5907 5909 5910 5911 5913 5914 5916 5916 5917 5916 5915 5913 5913 5913 5913 5912 5911 5911 5911 5910 5907 5905 5903 5902 5900 5898 5897
5853 5859 5860 5870 5871 5874 5878 5880 5884 5886 5891 5894 5893 5894 5897 5900 5902 5903 5903 5905 5905 5907 5909 5909 5908 5907 5907 5907 5906 5906 5906 5905 5903 5902 5901 5900 5899 5897 5894 5893 5891 5889 5888
5848 5852 5855 5860 5866 5865 5866 5872 5877 5878 5882 5885 5887 5888 5890 5893 5894 5895 5896 5897 5898 5899 5901 5900 5900 5899 5899 5899 5900 5898 5898 5897 5894 5892 5890 5889 5889 5888 5886 5885 5883 5880 5879
5848 5848 5850 5852 5855 5856 5859 5855 5865 5870 5873 5876 5879 5880 5881 5884 5886 5886 5887 5888 5890 5891 5892 5892 5891 5891 5890 5888 5888 5888 5887 5886 5884 5882 5881 5879 5878 5877 5875 5874 5872 5870 5867
5841 5841 5842 5844 5845 5844 5843 5850 5854 5859 5862 5866 5870 5871 5872 5874 5876 5877 5877 5878 5879 5880 5881 5881 5882 5881 5880 5878 5877 5878 5878 5876 5874 5871 5869 5866 5863 5863 5863 5861 5859 5857 5854
5832 5834 5836 5837 5838 5838 5840 5841 5832 5846 5850 5854 5858 5860 5861 5862 5866 5868 5867 5867 5867 5868 5868 5869 5870 5869 5868 5867 5865 5864 5864 5862 5861 5858 5855 5853 5852 5850 5849 5847 5845 5842 5841
5826 5826 5828 5828 5830 5832 5832 5833 5834 5836 5838 5842 5846 5849 5851 5853 5855 5855 5856 5855 5854 5854 5856 5857 5856 5855 5855 5854 5852 5851 5851 5848 5846 5844 5840 5838 5837 5837 5835 5833 5831 5829 5826
5819 5820 5821 5822 5822 5823 5824 5824 5824 5825 5826 5829 5833 5836 5838 5841 5843 5843 5842 5843 5842 5842 5843 5842 5841 5842 5841 5840 5839 5838 5836 5836 5835 5832 5829 5827 5824 5822 5820 5818 5816 5814 5812
5811 5812 5813 5816 5817 5817 5818 5816 5817 5819 5817 5819 5818 5821 5824 5827 5830 5831 5831 5831 5830 5830 5829 5828 5828 5829 5828 5827 5827 5825 5824 5824 5822 5820 5817 5814 5811 5809 5807 5806 5805 5803 5801
5803 5804 5805 5808 5810 5811 5811 5811 5810 5811 5813 5812 5811 5812 5811 5811 5812 5815 5816 5818 5820 5820 5820 5820 5819 5818 5817 5816 5816 5815 5814 5812 5811 5807 5804 5803 5800 5798 5796 5794 5792 5790 5787
5791 5795 5797 5798 5801 5803 5804 5804 5804 5806 5807 5807 5807 5806 5810 5811 5808 5809 5810 5810 5811 5811 5810 5810 5810 5808 5808 5807 5806 5804 5803 5801 5798 5797 5794 5793 5789 5787 5785 5782 5780 5776 5771
5784 5785 5787 5790 5792 5794 5796 5796 5797 5798 5799 5800 5802 5802 5801 5802 5802 5801 5801 5802 5802 5801 5801 5800 5799 5798 5798 5798 5796 5793 5791 5789 5786 5785 5782 5780 5778 5774 5772 5770 5768 5764 5759
5779 5779 5780 5781 5782 5785 5787 5789 5789 5788 5790 5791 5792 5794 5794 5795 5794 5792 5792 5792 5791 5790 5790 5789 5787 5787 5787 5786 5785 5782 5780 5778 5775 5772 5769 5767 5765 5762 5759 5757 5754 5750 5746
5773 5773 5775 5777 5778 5779 5781 5781 5781 5781 5781 5783 5783 5784 5784 5784 5783 5781 5780 5780 5779 5778 5778 5777 5777 5775 5774 5772 5771 5769 5768 5765 5763 5760 5758 5756 5752 5749 5746 5743 5741 5738 5734
5766 5766 5767 5769 5771 5772 5774 5776 5777 5775 5775 5775 5774 5774 5775 5774 5773 5772 5772 5770 5769 5767 5766 5765 5764 5762 5760 5760 5759 5757 5754 5752 5750 5747 5744 5742 5739 5736 5733 5730 5727 5724 5722
5762 5763 5763 5764 5765 5765 5765 5765 5765 5766 5765 5764 5764 5764 5763 5761 5761 5760 5759 5759 5758 5756 5754 5753 5752 5751 5750 5749 5748 5746 5744 5741 5739 5736 5732 5729 5727 5725 5722 5718 5714 5711 5708
5761 5762 5763 5763 5763 5763 5763 5762 5762 5763 5761 5759 5757 5755 5754 5752 5752 5752 5750 5749 5749 5748 5747 5746 5744 5741 5740 5739 5737 5735 5733 5730 5727 5724 5720 5717 5714 5712 5710 5706 5702 5699 5695
5758 5758 5758 5758 5758 5757 5757 5756 5754 5754 5754 5751 5749 5749 5748 5747 5746 5744 5743 5742 5740 5739 5737 5736 5734 5732 5730 5728 5726 5724 5720 5717 5715 5712 5709 5705 5701 5698 5695 5692 5689 5685 5682
5755 5754 5754 5753 5751 5750 5749 5748 5748 5747 5746 5745 5744 5742 5740 5738 5736 5735 5734 5733 5730 5729 5728 5726 5724 5721 5718 5716 5713 5710 5707 5705 5702 5698 5695 5691 5687 5684 5683 5680 5677 5674 5670
5748 5747 5747 5745 5744 5743 5742 5741 5739 5738 5737 5736 5734 5733 5732 5731 5729 5727 5725 5723 5721 5719 5716 5714 5711 5708 5705 5701 5699 5697 5694 5690 5687 5684 5682 5679 5676 5673 5671 5668 5666 5661 5657